| time (UTC) | temp C | wind direction | speed KPH | gust KPH | rain 1hr cm | rain 24hr cm | rain mn cm | humidity % | barometer mb |
| 20260902014147 | 13 | 247 | 0.0 | 0.0 | 0.00 | 0.00 | 0.00 | 57 | 1020.6 |
| 20260902013231 | 13 | 180 | 0.0 | 3.2 | 0.00 | 0.00 | 0.00 | 55 | 1020.6 |
| 20260902011232 | 13 | 235 | 0.0 | 1.6 | 0.00 | 0.00 | 0.00 | 54 | 1020.6 |
| 20260902005330 | 14 | 155 | 0.0 | 1.6 | 0.00 | 0.00 | 0.00 | 53 | 1020.6 |
| 20260902003330 | 15 | 157 | 0.0 | 1.6 | 0.00 | 0.00 | 0.00 | 51 | 1020.6 |
| 20260902002329 | 15 | 180 | 0.0 | 1.6 | 0.00 | 0.00 | 0.00 | 51 | 1020.6 |
| 20260902001330 | 15 | 192 | 1.6 | 6.4 | 0.00 | 0.00 | 0.00 | 50 | 1020.4 |
| 20260902000331 | 15 | 190 | 0.0 | 4.8 | 0.00 | 0.00 | 0.00 | 50 | 1020.5 |
| 20260901235430 | 15 | 217 | 3.2 | 9.7 | 0.00 | 0.00 | 0.00 | 48 | 1020.7 |
| 20260901234429 | 15 | 159 | 6.4 | 9.7 | 0.00 | 0.00 | 0.00 | 48 | 1020.7 |
| 20260901233430 | 16 | 162 | 4.8 | 8.0 | 0.00 | 0.00 | 0.00 | 47 | 1020.7 |
| 20260901232430 | 16 | 157 | 1.6 | 3.2 | 0.00 | 0.00 | 0.00 | 45 | 1020.6 |
| 20260901231431 | 16 | 232 | 3.2 | 6.4 | 0.00 | 0.00 | 0.00 | 45 | 1020.7 |
| 20260901230430 | 17 | 224 | 0.0 | 4.8 | 0.00 | 0.00 | 0.00 | 44 | 1020.7 |
| 20260901225429 | 17 | 135 | 1.6 | 3.2 | 0.00 | 0.00 | 0.00 | 44 | 1020.7 |
| 20260901224448 | 17 | 229 | 0.0 | 1.6 | 0.00 | 0.00 | 0.00 | 44 | 1020.7 |
| 20260901223530 | 17 | 159 | 1.6 | 6.4 | 0.00 | 0.00 | 0.00 | 43 | 1020.6 |
| 20260901222530 | 17 | 186 | 1.6 | 3.2 | 0.00 | 0.00 | 0.00 | 43 | 1020.9 |
| 20260901220529 | 17 | 203 | 1.6 | 4.8 | 0.00 | 0.00 | 0.00 | 43 | 1020.9 |
| 20260901215530 | 17 | 217 | 3.2 | 4.8 | 0.00 | 0.00 | 0.00 | 41 | 1020.9 |
| 20260901214531 | 17 | 192 | 1.6 | 8.0 | 0.00 | 0.00 | 0.00 | 41 | 1021.1 |
| 20260901213532 | 17 | 214 | 4.8 | 6.4 | 0.00 | 0.00 | 0.00 | 39 | 1021.1 |
| 20260901212531 | 17 | 262 | 1.6 | 3.2 | 0.00 | 0.00 | 0.00 | 39 | 1021.1 |
| 20260901211531 | 18 | 193 | 0.0 | 3.2 | 0.00 | 0.00 | 0.00 | 37 | 1021.0 |
| 20260901210529 | 18 | 160 | 4.8 | 8.0 | 0.00 | 0.00 | 0.00 | 37 | 1021.0 |
| 20260901204647 | 17 | 196 | 4.8 | 9.7 | 0.00 | 0.00 | 0.00 | 34 | 1020.9 |
| 20260901203729 | 17 | 176 | 9.7 | 17.7 | 0.00 | 0.00 | 0.00 | 33 | 1021.1 |
| 20260901202747 | 17 | 206 | 3.2 | 11.3 | 0.00 | 0.00 | 0.00 | 32 | 1021.1 |
| 20260901201830 | 17 | 242 | 4.8 | 9.7 | 0.00 | 0.00 | 0.00 | 33 | 1021.2 |
| 20260901200832 | 17 | 224 | 6.4 | 12.9 | 0.00 | 0.00 | 0.00 | 32 | 1021.2 |
| 20260901195831 | 17 | 218 | 3.2 | 8.0 | 0.00 | 0.00 | 0.00 | 31 | 1021.1 |
| 20260901194831 | 17 | 233 | 0.0 | 4.8 | 0.00 | 0.00 | 0.00 | 33 | 1021.3 |
| 20260901192831 | 17 | 189 | 3.2 | 8.0 | 0.00 | 0.00 | 0.00 | 31 | 1021.6 |
| 20260901191831 | 17 | 235 | 4.8 | 11.3 | 0.00 | 0.00 | 0.00 | 32 | 1021.7 |
| 20260901190929 | 17 | 231 | 4.8 | 8.0 | 0.00 | 0.00 | 0.00 | 32 | 1021.8 |
| 20260901185931 | 17 | 225 | 4.8 | 6.4 | 0.00 | 0.00 | 0.00 | 32 | 1021.8 |
| 20260901184929 | 17 | 240 | 9.7 | 16.1 | 0.00 | 0.00 | 0.00 | 32 | 1021.7 |
| 20260901183933 | 17 | 242 | 6.4 | 9.7 | 0.00 | 0.00 | 0.00 | 31 | 1021.6 |
| 20260901183029 | 17 | 204 | 11.3 | 14.5 | 0.00 | 0.00 | 0.00 | 33 | 1021.7 |
| 20260901182128 | 17 | 184 | 3.2 | 6.4 | 0.00 | 0.00 | 0.00 | 31 | 1021.5 |
| 20260901180128 | 17 | 162 | 4.8 | 6.4 | 0.00 | 0.00 | 0.00 | 34 | 1021.4 |
| 20260901175129 | 16 | 181 | 4.8 | 9.7 | 0.00 | 0.00 | 0.00 | 36 | 1021.2 |
| 20260901174130 | 16 | 155 | 3.2 | 6.4 | 0.00 | 0.00 | 0.00 | 37 | 1021.3 |
| 20260901172130 | 16 | 192 | 1.6 | 4.8 | 0.00 | 0.00 | 0.00 | 39 | 1021.1 |
| 20260901171131 | 16 | 223 | 1.6 | 4.8 | 0.00 | 0.00 | 0.00 | 40 | 1021.1 |
| 20260901170230 | 16 | 175 | 4.8 | 9.7 | 0.00 | 0.00 | 0.00 | 40 | 1021.1 |
| 20260901165329 | 16 | 144 | 4.8 | 8.0 | 0.00 | 0.00 | 0.00 | 40 | 1021.1 |
| 20260901162429 | 16 | 236 | 4.8 | 8.0 | 0.00 | 0.00 | 0.00 | 43 | 1020.9 |
| 20260901161529 | 16 | 143 | 1.6 | 6.4 | 0.00 | 0.00 | 0.00 | 45 | 1020.7 |
| 20260901160546 | 16 | 155 | 6.4 | 9.7 | 0.00 | 0.00 | 0.00 | 46 | 1020.8 |
| 20260901155531 | 15 | 139 | 1.6 | 3.2 | 0.00 | 0.00 | 0.00 | 46 | 1020.5 |
| 20260901153531 | 14 | 200 | 4.8 | 8.0 | 0.00 | 0.00 | 0.00 | 45 | 1020.3 |
| 20260901152531 | 13 | 220 | 3.2 | 6.4 | 0.00 | 0.00 | 0.00 | 46 | 1020.3 |
| 20260901151531 | 13 | 146 | 4.8 | 6.4 | 0.00 | 0.00 | 0.00 | 46 | 1020.3 |
| 20260901150532 | 13 | 160 | 1.6 | 4.8 | 0.00 | 0.00 | 0.00 | 47 | 1020.3 |
| 20260901145532 | 13 | 134 | 3.2 | 6.4 | 0.00 | 0.00 | 0.00 | 50 | 1020.1 |
| 20260901144530 | 12 | 180 | 3.2 | 6.4 | 0.00 | 0.00 | 0.00 | 50 | 1019.9 |
| 20260901143529 | 12 | 189 | 4.8 | 6.4 | 0.00 | 0.00 | 0.00 | 53 | 1019.9 |
| 20260901142533 | 12 | 162 | 3.2 | 6.4 | 0.00 | 0.00 | 0.00 | 53 | 1020.0 |
| 20260901141629 | 12 | 168 | 3.2 | 4.8 | 0.00 | 0.00 | 0.00 | 54 | 1019.7 |
| 20260901135630 | 11 | 170 | 1.6 | 4.8 | 0.00 | 0.00 | 0.00 | 58 | 1019.7 |
| 20260901134629 | 10 | 157 | 0.0 | 1.6 | 0.00 | 0.00 | 0.00 | 57 | 1019.5 |
| 20260901133630 | 11 | 157 | 0.0 | 0.0 | 0.00 | 0.00 | 0.00 | 57 | 1019.4 |
| 20260901132630 | 11 | 157 | 0.0 | 0.0 | 0.00 | 0.00 | 0.00 | 57 | 1019.5 |
| 20260901124731 | 11 | 157 | 0.0 | 0.0 | 0.00 | 0.00 | 0.00 | 56 | 1019.7 |
| 20260901123731 | 11 | 157 | 0.0 | 0.0 | 0.00 | 0.00 | 0.00 | 56 | 1019.6 |
| 20260901121830 | 12 | 157 | 0.0 | 0.0 | 0.00 | 0.00 | 0.00 | 55 | 1019.7 |
| 20260901120830 | 11 | 157 | 0.0 | 1.6 | 0.00 | 0.00 | 0.00 | 56 | 1019.6 |
| 20260901114929 | 11 | 157 | 0.0 | 0.0 | 0.00 | 0.00 | 0.00 | 55 | 1019.7 |
| 20260901113930 | 11 | 157 | 0.0 | 0.0 | 0.00 | 0.00 | 0.00 | 57 | 1019.7 |
| 20260901112930 | 11 | 157 | 0.0 | 0.0 | 0.00 | 0.00 | 0.00 | 56 | 1019.7 |
| 20260901111931 | 11 | 157 | 0.0 | 0.0 | 0.00 | 0.00 | 0.00 | 56 | 1019.5 |
| 20260901110030 | 12 | 157 | 0.0 | 0.0 | 0.00 | 0.00 | 0.00 | 55 | 1019.7 |
| 20260901105128 | 12 | 157 | 0.0 | 0.0 | 0.00 | 0.00 | 0.00 | 54 | 1019.7 |
| 20260901104129 | 13 | 157 | 0.0 | 0.0 | 0.00 | 0.00 | 0.00 | 53 | 1019.9 |
| 20260901102130 | 13 | 159 | 0.0 | 3.2 | 0.00 | 0.00 | 0.00 | 52 | 1019.8 |
| 20260901100144 | 13 | 180 | 0.0 | 1.6 | 0.00 | 0.00 | 0.00 | 53 | 1019.7 |
| 20260901095131 | 13 | 180 | 0.0 | 1.6 | 0.00 | 0.00 | 0.00 | 53 | 1019.9 |
| 20260901094130 | 13 | 180 | 1.6 | 3.2 | 0.00 | 0.00 | 0.00 | 53 | 1019.9 |
| 20260901093228 | 13 | 162 | 1.6 | 3.2 | 0.00 | 0.00 | 0.00 | 53 | 1020.0 |
| 20260901092229 | 13 | 176 | 4.8 | 8.0 | 0.00 | 0.00 | 0.00 | 53 | 1020.1 |
| 20260901091329 | 13 | 175 | 3.2 | 6.4 | 0.00 | 0.00 | 0.00 | 54 | 1020.1 |
| 20260901090329 | 13 | 161 | 4.8 | 6.4 | 0.00 | 0.00 | 0.00 | 54 | 1020.0 |
| 20260901085331 | 13 | 168 | 3.2 | 4.8 | 0.00 | 0.00 | 0.00 | 55 | 1019.9 |
| 20260901083444 | 12 | 157 | 3.2 | 6.4 | 0.00 | 0.00 | 0.00 | 58 | 1020.1 |
| 20260901082528 | 12 | 180 | 0.0 | 1.6 | 0.00 | 0.00 | 0.00 | 58 | 1020.1 |
| 20260901081531 | 12 | 180 | 0.0 | 1.6 | 0.00 | 0.00 | 0.00 | 58 | 1020.1 |
| 20260901080529 | 12 | 180 | 0.0 | 0.0 | 0.00 | 0.00 | 0.00 | 57 | 1020.2 |
| 20260901075529 | 12 | 180 | 0.0 | 0.0 | 0.00 | 0.00 | 0.00 | 58 | 1020.1 |
| 20260901074530 | 12 | 180 | 0.0 | 0.0 | 0.00 | 0.00 | 0.00 | 58 | 1020.1 |
| 20260901073533 | 12 | 180 | 0.0 | 0.0 | 0.00 | 0.00 | 0.00 | 58 | 1020.2 |
| 20260901071529 | 12 | 180 | 0.0 | 0.0 | 0.00 | 0.00 | 0.00 | 59 | 1020.1 |
| 20260901070531 | 12 | 180 | 0.0 | 0.0 | 0.00 | 0.00 | 0.00 | 59 | 1019.9 |
| 20260901064715 | 12 | 180 | 0.0 | 0.0 | 0.00 | 0.00 | 0.00 | 59 | 1019.8 |
| 20260901063717 | 12 | 180 | 0.0 | 0.0 | 0.00 | 0.00 | 0.00 | 59 | 1020.0 |
| 20260901062732 | 12 | 180 | 0.0 | 0.0 | 0.00 | 0.00 | 0.00 | 59 | 1020.1 |
| 20260901061816 | 12 | 180 | 0.0 | 0.0 | 0.00 | 0.00 | 0.00 | 59 | 1019.9 |
| 20260901060916 | 12 | 180 | 0.0 | 0.0 | 0.00 | 0.00 | 0.00 | 59 | 1020.0 |
| 20260901055917 | 12 | 180 | 0.0 | 0.0 | 0.00 | 0.00 | 0.00 | 59 | 1020.2 |
| 20260901054916 | 12 | 180 | 0.0 | 0.0 | 0.00 | 0.00 | 0.00 | 58 | 1020.3 |
| 20260901053917 | 12 | 180 | 0.0 | 0.0 | 0.00 | 0.00 | 0.00 | 57 | 1020.3 |
| 20260901053015 | 12 | 180 | 0.0 | 0.0 | 0.00 | 0.00 | 0.00 | 56 | 1020.4 |
| 20260901052014 | 12 | 180 | 0.0 | 0.0 | 0.00 | 0.00 | 0.00 | 55 | 1020.5 |
| 20260901051016 | 12 | 180 | 0.0 | 0.0 | 0.00 | 0.00 | 0.00 | 56 | 1020.4 |
| 20260901050016 | 12 | 180 | 0.0 | 0.0 | 0.00 | 0.00 | 0.00 | 56 | 1020.5 |
| 20260901045015 | 12 | 180 | 0.0 | 0.0 | 0.00 | 0.00 | 0.00 | 57 | 1020.5 |
| 20260901044014 | 12 | 180 | 0.0 | 0.0 | 0.00 | 0.00 | 0.00 | 56 | 1020.3 |
| 20260901043016 | 12 | 180 | 0.0 | 0.0 | 0.00 | 0.00 | 0.00 | 55 | 1020.5 |
| 20260901042015 | 13 | 180 | 0.0 | 0.0 | 0.00 | 0.00 | 0.00 | 55 | 1020.5 |
| 20260901041031 | 13 | 180 | 0.0 | 0.0 | 0.00 | 0.00 | 0.00 | 53 | 1020.4 |
| 20260901040014 | 13 | 180 | 0.0 | 0.0 | 0.00 | 0.00 | 0.00 | 52 | 1020.3 |
| 20260901035015 | 13 | 180 | 0.0 | 0.0 | 0.00 | 0.00 | 0.00 | 53 | 1020.2 |
| 20260901034032 | 14 | 180 | 0.0 | 0.0 | 0.00 | 0.00 | 0.00 | 52 | 1020.1 |
| 20260901032015 | 15 | 180 | 0.0 | 0.0 | 0.00 | 0.00 | 0.00 | 50 | 1020.1 |
| 20260901031114 | 15 | 180 | 0.0 | 0.0 | 0.00 | 0.00 | 0.00 | 49 | 1020.1 |
| 20260901030115 | 15 | 180 | 0.0 | 0.0 | 0.00 | 0.00 | 0.00 | 49 | 1019.9 |
| 20260901025114 | 15 | 180 | 0.0 | 0.0 | 0.00 | 0.00 | 0.00 | 47 | 1019.8 |
| 20260901024115 | 16 | 180 | 0.0 | 0.0 | 0.00 | 0.00 | 0.00 | 46 | 1019.8 |
| 20260901022214 | 17 | 180 | 0.0 | 0.0 | 0.00 | 0.00 | 0.00 | 44 | 1019.8 |
| 20260901021217 | 17 | 180 | 0.0 | 0.0 | 0.00 | 0.00 | 0.00 | 42 | 1020.0 |
| 20260901020214 | 17 | 180 | 0.0 | 1.6 | 0.00 | 0.00 | 0.00 | 43 | 1020.1 |
| 20260901015217 | 17 | 180 | 0.0 | 1.6 | 0.00 | 0.00 | 0.00 | 41 | 1019.9 |